Theta_e
317 316 317 318 319 320 322 322 328 332 328 325 328 329 322 322 326 326 326 325 327 325 323 323 324 325 329 333 333 334 334 336 337 339 342 337 336 338 337 337 334 327 327 330 325 320 320 319 317 314 310 309 311 320 328 330 330 329 328 328 327 321 318 324 324 325 329 328 328 323 320 326 329 328 324 321 319 320 320 317 319 320 320 319 317 316 313 311 310 310 311 312 313 316 319 320 322
316 316 316 317 320 321 323 322 329 333 325 321 324 326 322 321 323 324 325 325 326 323 322 323 325 327 329 331 331 334 337 337 337 338 338 336 338 338 337 337 333 328 328 329 324 320 320 319 318 314 311 309 308 317 327 329 328 328 328 328 327 322 320 324 324 327 328 327 328 325 322 324 324 321 318 315 313 319 320 315 316 317 319 319 316 316 314 311 310 310 311 310 311 313 316 318 321
316 316 317 319 322 321 323 324 328 327 320 321 323 324 323 321 322 324 325 326 326 323 322 325 325 327 331 334 334 337 337 336 337 337 337 338 338 338 338 336 332 328 328 329 324 321 320 319 318 315 311 310 309 315 325 328 328 329 329 328 327 323 321 319 321 326 328 329 328 326 324 320 317 314 312 313 313 316 317 316 317 316 317 318 317 316 315 313 311 311 312 312 312 312 314 317 321
315 316 320 322 324 324 326 327 329 324 319 324 323 321 323 324 324 324 326 327 327 324 324 325 325 328 333 336 334 336 336 335 337 337 337 338 338 338 336 334 332 329 328 329 324 321 320 319 318 315 312 309 310 315 322 327 328 329 329 329 327 322 321 317 318 323 325 326 325 324 324 318 314 311 312 315 316 316 314 314 315 316 317 319 320 319 317 316 315 313 313 313 314 314 315 317 319
315 316 322 323 326 326 326 327 330 324 320 327 323 321 326 325 325 323 326 327 326 325 326 325 324 327 333 335 333 334 335 335 336 337 337 337 337 337 334 333 332 328 329 330 324 321 320 319 319 316 313 310 309 315 322 325 327 328 328 329 326 319 318 316 318 322 320 320 321 323 322 317 315 313 313 313 314 317 316 315 315 318 321 321 321 320 317 315 314 314 314 315 315 316 316 318 319
315 316 320 321 323 323 325 327 329 327 323 328 323 323 327 324 325 323 324 326 325 326 326 325 323 326 333 335 333 334 335 334 335 336 337 337 337 336 334 333 331 328 331 331 325 322 321 320 319 316 313 311 310 314 322 326 326 328 328 327 325 319 317 314 314 317 315 317 323 325 323 319 317 314 312 312 312 315 315 316 317 318 320 320 318 316 315 313 314 314 315 315 316 318 318 319 320
317 318 320 321 323 321 326 327 328 329 321 322 322 324 326 323 324 324 324 325 325 326 325 326 324 325 332 335 335 335 334 334 334 335 335 336 336 335 336 334 330 329 333 332 326 322 321 320 319 316 313 311 311 314 319 324 326 327 327 326 324 320 315 313 312 312 313 318 323 324 325 321 316 313 311 310 312 313 315 316 317 317 317 317 315 314 314 313 314 315 315 316 317 319 320 321 321
319 322 321 324 328 325 326 326 328 329 319 319 323 324 324 322 324 323 323 324 324 325 325 326 324 326 330 333 336 335 334 334 334 335 335 335 335 335 336 333 329 331 334 333 327 323 321 320 319 316 313 312 312 315 318 320 324 325 325 324 322 318 313 311 311 312 314 319 320 320 321 319 313 311 310 311 313 315 316 318 318 318 317 316 315 314 315 313 314 315 315 316 318 320 321 322 322
320 323 322 325 330 327 326 327 327 324 319 321 322 322 323 322 322 321 321 322 322 323 325 325 323 329 331 333 336 336 336 336 335 335 334 334 335 335 335 332 329 333 336 334 328 324 321 320 319 316 313 312 312 315 316 317 319 320 322 321 317 314 312 311 311 313 315 316 318 320 317 313 311 309 310 313 315 317 318 320 320 319 316 315 314 314 314 313 314 314 315 316 317 319 321 321 321
320 323 322 325 328 326 326 327 325 321 320 322 321 322 322 322 321 320 321 321 322 322 323 323 324 330 332 334 335 336 336 336 336 335 333 333 335 335 335 333 330 333 336 334 328 325 321 320 319 317 315 313 313 314 314 314 315 316 317 316 313 311 311 310 310 311 312 314 316 318 315 312 311 310 312 316 317 318 320 321 321 320 318 316 314 313 313 312 313 314 314 315 317 318 319 319 320
321 321 320 325 326 323 326 325 323 321 320 320 320 321 321 321 321 320 320 321 322 323 322 323 328 332 333 334 335 336 336 335 335 333 332 334 335 335 335 333 331 333 336 334 328 326 321 320 321 319 317 314 313 313 313 313 313 313 313 312 310 309 308 308 309 309 310 312 313 312 311 311 312 312 315 317 317 319 321 321 322 322 321 319 317 315 313 312 313 313 314 314 315 316 317 318 319
323 324 323 326 329 328 328 324 321 321 320 321 321 320 321 321 321 319 319 322 322 323 322 322 328 333 335 334 334 335 336 335 334 332 333 334 334 335 334 334 332 332 335 334 328 327 323 320 321 321 320 317 314 313 313 313 314 314 313 311 309 308 307 307 307 308 309 309 309 309 309 310 312 314 316 317 317 320 321 322 322 322 322 321 320 319 316 314 313 313 314 314 314 315 316 316 317
322 325 324 327 331 330 327 324 322 322 320 321 321 320 322 320 320 319 320 323 322 323 321 321 324 330 336 334 334 335 336 334 333 331 332 334 334 335 334 334 333 331 334 335 329 327 326 322 321 322 322 320 317 315 314 313 314 315 314 313 311 309 307 307 307 307 308 308 308 307 309 311 314 316 316 317 317 319 321 321 321 322 322 322 322 321 320 318 316 314 313 314 314 314 315 315 316
321 323 323 327 331 326 324 323 320 321 320 320 320 320 323 320 320 320 321 322 320 321 319 320 321 328 337 334 334 335 334 333 331 331 333 334 334 334 334 334 333 332 335 334 330 328 328 324 321 322 322 322 321 319 317 315 315 315 315 315 313 311 309 309 308 307 307 307 307 307 308 311 314 316 317 317 317 319 320 320 320 321 321 322 322 322 322 321 320 318 316 315 314 314 314 315 315
320 321 324 327 330 326 327 326 322 323 320 320 320 320 322 320 319 319 320 321 320 320 319 321 321 327 335 334 333 333 334 333 330 331 333 334 335 335 334 334 332 331 334 333 329 329 328 325 322 321 322 322 323 322 320 318 317 316 315 316 315 314 313 312 310 308 307 307 307 307 309 311 314 316 317 317 318 318 319 319 319 319 320 321 321 322 322 322 322 321 320 319 318 317 316 315 315
320 321 324 326 329 329 329 325 323 325 321 319 319 320 321 319 319 319 319 320 320 320 319 320 320 326 330 330 328 328 334 334 330 331 333 335 335 335 334 334 332 331 333 333 331 329 328 326 323 322 322 322 323 323 323 321 319 318 317 316 316 316 316 315 313 310 309 307 307 307 309 312 314 316 318 318 318 318 318 318 318 319 319 320 321 321 322 322 322 322 322 321 321 320 319 318 316
318 321 326 327 330 330 329 325 323 326 322 319 318 320 320 319 319 319 320 319 321 320 319 320 320 326 328 329 324 323 332 334 331 332 333 335 335 334 335 333 332 332 333 332 331 329 328 328 325 323 323 322 322 322 323 323 322 320 319 318 317 317 317 317 316 315 313 310 309 309 310 312 314 316 317 318 318 318 319 319 319 319 320 320 321 321 321 322 322 322 322 322 321 320 320 319 318
319 326 328 326 331 329 328 326 322 323 321 318 318 319 320 319 318 318 319 319 321 320 321 322 322 326 327 328 325 323 330 333 331 331 332 335 334 333 333 332 331 331 332 331 329 328 328 330 329 326 325 323 323 322 322 323 323 323 322 321 320 318 317 317 317 317 317 315 313 312 312 313 314 316 317 318 319 319 319 320 320 320 320 321 321 321 321 322 322 323 323 322 322 322 321 320 320
320 328 326 328 335 327 320 320 319 320 319 317 318 319 319 319 318 318 318 318 320 321 323 325 326 330 331 330 329 325 328 332 331 329 330 332 332 330 329 330 329 329 331 330 328 326 327 331 331 329 326 325 326 326 325 324 323 323 324 323 322 321 319 319 318 318 318 317 317 316 316 315 316 317 317 318 319 319 320 320 320 320 320 320 321 321 321 322 322 322 323 323 323 322 322 322 321
319 321 324 331 330 319 316 317 318 320 319 318 317 318 319 319 318 318 318 317 317 319 323 328 332 334 334 333 332 328 327 330 331 329 328 328 328 328 326 326 327 328 328 327 327 325 325 328 330 331 329 327 327 329 329 327 325 323 323 324 323 323 322 322 321 319 319 318 318 318 318 317 317 318 318 318 319 319 320 320 320 321 320 320 321 321 321 321 322 322 322 322 322 322 322 323 322
318 318 325 328 320 317 317 316 318 320 318 318 318 318 318 318 318 317 317 317 316 317 319 324 329 330 331 333 333 330 328 328 329 329 328 326 326 327 325 324 323 326 327 326 327 326 324 325 328 330 330 328 327 329 331 330 328 325 323 323 324 324 323 324 323 323 321 320 319 319 319 318 319 319 319 319 319 320 320 320 320 320 320 320 321 321 321 321 321 321 321 322 322 322 322 322 322
318 318 321 321 316 318 318 315 318 319 318 318 317 318 318 317 317 317 317 318 318 317 317 317 318 320 323 328 330 330 328 326 327 327 327 326 326 326 326 325 324 325 327 327 327 327 326 325 326 327 328 328 326 328 330 331 330 328 325 323 322 323 323 324 324 324 324 324 323 321 320 319 319 319 319 319 319 320 320 320 320 321 321 320 320 320 320 321 321 321 321 321 321 321 322 322 322
319 320 317 316 317 318 316 316 317 318 318 317 317 318 318 317 317 317 316 317 317 316 317 317 316 317 317 320 324 327 326 325 324 324 325 325 325 325 325 326 325 325 326 326 327 327 327 326 326 326 326 326 325 327 329 330 328 328 327 324 323 322 322 323 323 324 324 325 325 325 324 322 321 321 320 320 320 320 319 320 320 320 320 319 320 320 320 320 321 320 321 321 320 321 321 321 321
319 320 317 316 316 316 316 316 317 318 318 317 318 318 317 317 317 317 316 316 317 317 317 317 317 317 318 319 319 320 321 321 320 321 323 324 324 324 325 325 325 325 324 325 326 327 327 327 327 326 325 325 324 324 326 327 326 325 325 324 323 322 322 322 323 323 323 324 324 325 325 325 325 324 323 323 323 322 321 321 321 320 319 319 320 320 320 320 320 320 320 320 320 320 320 320 320
317 319 317 315 315 315 316 316 317 317 318 318 318 316 316 317 316 316 316 316 316 317 318 317 318 318 318 317 317 318 318 319 319 321 323 324 325 325 326 326 326 326 325 325 326 326 326 325 327 327 325 324 324 323 324 325 324 323 323 322 321 321 321 321 322 322 323 323 324 324 325 325 325 325 325 325 325 325 325 325 324 323 322 322 322 321 321 320 320 320 320 320 320 320 320 320 320
317 317 316 315 314 315 315 315 316 317 317 317 317 315 315 315 316 316 315 316 316 315 317 318 319 319 319 317 316 317 317 318 318 319 321 323 326 328 329 328 328 328 327 326 326 326 326 324 325 326 325 324 324 324 324 324 324 324 323 322 321 321 321 321 321 322 322 323 323 324 324 325 325 325 325 326 326 326 326 326 326 326 326 325 325 324 324 323 322 322 321 321 321 321 320 320 320
316 316 316 315 314 314 314 315 315 316 316 316 317 315 314 315 315 317 316 316 316 315 317 319 320 320 319 318 317 316 316 316 316 317 319 323 326 329 331 332 330 329 328 328 327 327 327 325 324 324 325 324 324 324 324 324 324 324 323 323 322 322 321 321 321 322 322 322 323 323 324 324 325 325 325 325 326 326 326 326 326 326 326 326 326 326 326 326 325 324 324 324 323 323 322 321 321
316 315 315 314 314 314 314 314 314 315 316 315 316 314 314 315 315 316 316 316 316 316 318 319 319 319 319 319 318 316 315 315 316 317 318 320 322 325 330 332 332 332 331 329 327 327 327 325 324 323 323 323 323 323 324 324 323 323 323 323 323 322 322 322 322 322 322 322 323 323 324 324 325 325 325 325 326 326 326 326 326 327 326 326 326 326 327 327 326 326 326 326 326 325 325 324 323
315 316 316 314 314 315 314 314 314 315 315 315 315 315 316 316 316 316 315 316 316 316 317 318 319 318 319 319 318 316 315 315 316 317 316 316 317 319 323 328 332 333 332 331 329 328 326 325 323 322 321 321 322 322 322 322 323 323 323 323 322 322 322 322 321 322 322 323 323 323 323 324 324 325 325 325 325 325 326 326 326 327 327 327 327 327 327 327 326 326 327 327 326 326 325 325 325
315 315 316 316 314 315 315 314 315 315 315 315 314 316 321 318 316 315 315 316 316 316 315 316 317 317 317 317 317 316 315 315 316 316 316 316 315 316 316 320 327 331 333 333 331 327 325 324 323 322 321 320 319 320 320 321 321 321 321 321 321 321 321 321 320 320 320 321 322 322 322 323 324 325 325 325 325 325 325 325 326 327 327 327 327 327 327 327 326 326 326 326 326 325 325 325 325
317 315 316 319 318 318 316 313 314 315 314 314 313 317 324 320 315 315 315 316 316 316 315 315 315 316 317 318 316 315 315 315 315 315 314 315 315 315 315 316 320 327 332 332 328 325 323 321 321 321 321 319 318 318 318 319 320 320 320 319 319 319 319 319 318 318 318 318 319 320 320 320 321 323 325 326 326 326 325 324 325 326 327 327 327 327 327 327 326 326 326 326 326 325 325 325 325
316 316 318 318 318 320 317 313 314 315 314 314 313 317 321 318 314 314 315 316 315 315 315 315 315 315 316 318 318 317 316 316 316 316 315 315 314 315 315 316 316 321 326 328 325 324 321 319 318 319 319 318 317 316 316 317 318 319 319 319 318 318 317 317 317 317 316 316 316 317 317 318 319 321 323 325 326 326 326 325 325 326 327 327 327 327 328 327 327 327 327 327 327 326 326 326 325
315 318 322 320 317 319 317 314 313 314 314 313 313 316 319 316 313 313 314 315 315 315 314 315 315 315 316 317 318 318 318 320 320 318 316 315 315 315 314 315 316 316 319 322 322 321 319 317 317 316 316 317 317 316 316 316 317 317 318 319 319 318 317 316 316 316 316 315 315 315 315 316 316 317 320 323 325 326 326 326 326 326 327 328 328 327 326 326 327 327 327 327 327 327 326 326 325
316 315 320 322 319 317 317 316 314 313 314 314 313 315 318 316 312 313 314 313 314 314 314 315 316 315 315 316 318 319 319 320 319 317 315 316 315 314 314 314 315 315 316 318 319 318 317 316 315 314 315 316 317 317 316 316 316 317 317 319 319 318 316 315 315 315 315 316 315 314 314 314 314 315 316 319 322 324 326 326 327 327 327 327 326 325 325 325 326 326 327 327 326 326 326 326 326
319 316 316 320 318 315 318 318 315 314 315 315 314 314 318 317 313 312 314 313 314 314 314 315 315 316 316 316 317 318 319 319 317 315 314 314 314 314 314 314 314 314 315 316 317 318 317 317 316 315 315 315 316 316 316 317 317 317 317 317 317 316 315 314 314 314 314 315 315 315 315 314 313 314 314 315 317 320 322 324 325 325 326 325 324 325 325 325 325 325 325 326 326 326 326 326 325
320 319 317 320 319 316 318 318 315 314 315 316 315 314 316 317 314 312 313 313 313 314 314 314 314 315 316 316 316 316 317 317 314 314 314 313 313 314 314 314 314 314 314 315 316 317 317 317 317 316 315 315 316 316 317 317 317 316 316 316 315 315 314 314 314 314 314 314 314 315 316 315 315 314 314 315 315 316 318 320 320 321 323 324 324 325 325 324 325 324 324 326 326 326 326 326 325
315 317 316 319 320 317 317 317 314 313 315 316 315 315 315 315 315 312 312 313 313 312 313 314 314 314 315 316 317 316 316 315 314 314 314 314 313 314 314 314 314 314 314 315 315 316 315 315 315 315 315 315 315 315 316 316 315 315 314 314 314 314 314 314 314 314 314 314 314 314 315 315 315 315 315 316 316 317 318 318 318 319 320 321 322 323 323 323 324 324 324 325 325 325 325 325 325
312 316 316 316 320 318 315 315 314 312 314 316 315 315 314 315 315 312 311 312 311 312 312 312 314 313 314 315 315 316 315 314 314 315 315 314 314 314 313 314 314 314 314 314 314 314 314 314 314 314 314 314 314 314 314 314 314 314 314 314 314 314 314 314 315 315 315 315 315 314 314 315 315 315 316 316 318 318 318 319 320 319 320 322 323 323 323 324 325 325 324 324 324 324 324 325 326
312 316 316 316 318 318 314 314 315 313 314 317 317 315 315 315 315 312 310 311 312 313 313 313 314 313 314 314 315 315 315 315 315 315 315 315 314 314 314 313 314 314 314 314 314 314 314 314 313 313 314 313 314 314 314 314 314 314 314 314 315 315 315 315 315 315 316 316 315 315 315 314 315 315 315 316 317 318 319 321 322 319 319 321 322 323 324 323 323 323 325 325 324 325 325 325 325
314 317 317 317 316 317 316 314 314 313 313 316 316 316 316 315 315 314 312 312 314 314 314 314 314 314 314 314 314 315 315 315 315 315 315 315 314 315 314 314 314 314 314 314 314 314 314 314 314 314 314 314 314 314 314 314 314 315 315 316 317 317 317 317 316 315 315 315 315 316 316 315 316 315 317 318 318 320 321 322 321 319 319 321 323 326 327 326 323 322 324 326 324 324 326 326 325
316 319 320 321 318 317 317 315 314 313 313 314 315 316 318 316 315 316 315 313 313 314 314 314 314 314 314 314 314 314 315 314 315 315 315 315 315 314 314 314 314 314 314 314 314 314 314 314 314 314 314 314 314 314 314 314 314 315 316 317 319 319 318 317 316 315 314 315 315 316 317 317 317 317 319 322 322 320 319 320 321 320 321 324 327 328 328 328 325 320 324 327 324 323 324 326 327
316 320 322 323 319 318 318 317 316 313 314 317 314 314 323 326 318 314 314 313 313 313 312 313 314 314 314 314 314 313 314 314 314 315 315 315 315 315 315 314 314 314 314 314 314 314 314 314 314 314 314 314 314 314 314 314 314 315 316 317 317 317 317 316 315 315 315 316 317 317 318 318 317 318 320 324 324 319 319 324 324 323 324 326 329 330 329 328 322 319 324 326 323 321 321 323 325
313 317 321 321 320 321 320 317 319 318 316 316 313 314 323 325 319 316 315 313 314 313 311 312 313 314 314 314 315 315 314 314 315 315 315 315 315 315 315 315 314 314 314 314 314 313 314 314 314 314 314 314 314 314 313 314 314 314 315 315 316 316 316 316 316 317 317 317 317 317 318 318 318 318 319 321 321 318 322 327 326 327 329 330 330 327 324 323 320 320 323 323 323 323 323 323 323
317 319 321 324 321 323 321 317 321 324 317 315 315 316 317 316 318 321 318 313 314 314 313 313 312 313 315 315 315 315 315 315 315 315 315 316 316 316 316 315 315 315 315 314 314 314 313 314 314 314 314 314 314 314 313 314 314 314 316 316 317 316 316 316 317 318 318 317 317 316 316 317 317 318 317 317 317 315 319 322 323 326 328 327 325 322 321 322 322 322 323 325 326 326 325 325 323
319 322 322 323 321 323 322 318 321 321 317 319 320 315 314 320 326 323 317 316 316 315 316 315 312 313 315 315 315 315 315 316 316 316 316 317 317 317 316 316 315 315 314 314 314 314 313 313 313 313 314 314 314 314 314 314 315 317 318 318 318 318 316 317 318 318 318 317 316 315 315 316 315 315 315 315 315 315 316 317 319 321 320 319 320 322 325 327 326 325 325 326 325 324 324 323 323
316 321 323 325 324 323 320 320 323 317 315 323 324 316 313 322 329 322 314 317 318 318 317 313 312 314 316 315 316 315 316 317 317 317 317 317 317 316 316 315 315 314 314 314 314 313 313 313 313 313 313 314 314 314 314 315 317 319 320 320 319 318 316 316 316 315 315 315 314 315 315 315 315 315 315 315 315 315 315 316 316 317 317 317 318 321 324 324 324 324 324 323 323 322 322 321 321
315 322 325 324 326 326 323 327 326 315 319 329 327 318 313 316 325 324 317 318 320 317 317 315 312 313 314 315 316 315 316 316 316 316 316 316 316 315 315 314 314 314 313 313 313 313 313 313 313 313 313 314 314 314 314 315 317 319 318 317 316 315 314 314 314 313 313 313 314 314 315 314 315 314 315 315 315 314 314 314 315 315 315 316 317 318 320 321 323 322 322 323 323 323 323 322 322
318 327 325 318 322 326 327 328 320 315 324 329 321 316 314 315 323 325 319 319 319 317 317 319 316 313 313 314 315 315 315 315 314 315 314 314 314 313 314 313 313 313 313 313 313 312 313 313 313 313 313 313 313 313 314 314 315 315 314 313 312 312 312 313 313 313 313 314 314 315 315 315 315 314 314 314 314 314 314 313 314 314 314 314 315 316 318 319 320 320 320 321 321 321 322 322 322
320 323 319 316 318 318 320 323 319 319 322 318 314 315 316 317 319 319 317 317 317 315 315 317 315 313 314 314 315 315 314 314 314 313 313 313 313 313 313 312 312 312 312 312 312 312 312 312 312 312 312 312 312 312 312 312 312 311 311 311 311 311 312 313 313 314 314 314 315 315 315 314 314 314 314 314 314 314 314 314 314 313 313 313 313 314 315 315 316 317 318 318 318 318 319 320 320
318 317 315 319 321 314 315 319 318 319 319 315 312 315 317 317 317 317 317 315 313 313 313 315 314 314 315 314 314 314 313 313 313 313 313 312 312 312 312 312 312 312 312 312 311 311 311 311 311 311 311 311 311 311 311 311 310 310 310 311 311 312 313 314 314 314 314 315 315 314 314 315 314 315 314 314 315 314 314 314 314 314 313 313 313 313 313 313 313 314 314 314 315 315 316 318 318
318 321 318 320 324 320 318 320 320 320 320 315 311 315 321 320 317 318 314 310 311 313 315 315 315 315 315 314 313 313 313 313 314 313 313 312 312 312 311 312 311 312 311 311 311 311 311 311 311 311 311 311 311 311 311 311 311 311 312 312 313 314 314 315 315 315 315 314 315 315 314 315 315 315 315 315 315 314 314 314 314 314 314 313 313 313 312 312 312 312 312 312 312 313 314 314 314
319 321 320 319 323 327 324 321 325 325 319 315 313 318 325 319 315 316 311 309 311 311 313 314 314 314 313 313 312 312 313 313 314 313 312 311 311 311 311 311 311 311 311 311 311 311 311 311 311 311 311 311 311 311 311 312 312 313 314 314 314 315 315 315 315 315 315 315 315 315 315 315 315 315 315 314 314 314 314 314 314 314 314 314 313 313 313 312 312 312 312 311 312 312 312 312 312
318 317 321 322 320 326 323 314 317 318 317 319 315 316 321 316 315 317 312 313 312 310 311 312 313 313 311 311 311 311 313 313 314 313 312 312 311 311 311 310 311 311 311 312 312 312 312 312 312 312 312 312 312 313 313 314 314 314 315 315 315 315 315 315 315 314 315 315 315 315 315 315 315 314 314 314 314 314 314 314 314 313 313 313 313 313 313 313 312 312 312 311 311 311 311 311 311
319 318 320 320 316 320 320 314 314 314 317 322 315 313 319 317 318 320 313 313 314 312 311 309 310 311 310 311 311 311 313 313 313 314 313 313 313 312 313 312 313 313 312 313 312 312 312 312 313 313 313 314 314 314 315 314 315 315 315 315 314 315 315 314 315 315 315 315 314 315 314 314 314 314 314 314 313 313 313 313 313 313 313 313 312 313 313 313 313 312 312 311 311 311 310 310 310
315 316 316 317 317 318 318 316 317 314 314 320 316 314 318 317 321 322 315 315 315 312 312 310 310 311 310 312 312 311 313 313 313 314 314 314 314 313 314 314 314 314 313 313 313 313 314 313 314 315 314 315 314 315 315 314 314 314 314 314 314 314 315 314 315 314 314 314 314 314 314 314 314 313 313 313 313 313 312 312 312 312 312 312 312 312 312 312 312 311 311 311 310 310 310 310 309
312 313 312 315 318 320 318 316 319 320 317 320 318 315 320 322 323 324 319 319 316 312 313 312 309 310 311 312 312 311 313 313 313 314 314 314 315 314 315 314 314 314 314 315 315 314 315 315 315 315 314 315 314 314 314 314 314 314 314 314 314 315 314 314 314 314 314 314 314 314 314 313 313 313 313 312 312 312 311 311 311 311 311 311 310 310 310 310 310 310 310 310 309 309 309 309 308
313 314 313 313 315 316 317 316 321 324 320 321 318 317 329 331 321 319 318 318 317 312 313 311 307 310 312 311 312 312 313 313 313 314 314 314 315 315 315 315 315 315 315 315 315 315 315 314 314 314 314 314 314 314 314 314 314 314 314 314 314 314 314 314 314 314 314 314 314 313 313 313 313 312 312 311 311 311 310 310 310 310 310 310 309 309 309 309 309 309 309 308 308 307 306 306 305
314 314 314 315 314 316 317 315 319 321 318 324 321 318 333 335 318 315 316 315 314 309 309 310 308 310 312 311 312 313 313 313 313 314 314 314 315 315 314 315 315 315 315 314 314 314 314 314 314 314 314 314 314 314 314 314 314 314 314 314 314 314 314 314 314 314 313 313 313 313 313 312 312 311 311 310 310 310 310 310 310 309 309 309 309 309 309 308 307 307 306 305 304 303 302 302 301
Wind_Speed
3 3 3 4 4 5 4 3 1 2 2 0 3 0 1 1 4 5 6 6 5 7 13 15 15 13 9 13 15 15 13 4 3 2 7 14 19 16 14 13 11 13 14 14 12 12 12 12 13 13 13 12 13 17 19 15 13 12 12 13 13 15 16 17 18 19 19 17 15 14 17 19 19 18 18 18 17 17 17 17 17 17 18 18 18 17 17 17 17 17 17 17 17 16 15 14 15
3 3 3 4 4 4 4 2 1 3 3 1 4 2 4 2 6 7 6 5 6 9 15 18 18 16 17 18 14 12 15 10 9 16 21 23 20 15 13 13 12 14 14 14 13 12 12 12 13 13 13 12 12 17 18 15 13 11 11 12 13 14 16 17 17 18 18 17 16 15 16 16 17 17 17 16 16 16 17 17 17 17 17 17 17 17 17 18 18 18 18 18 18 17 16 16 16
4 3 3 4 1 3 5 2 1 1 2 2 4 3 3 6 6 7 9 11 14 16 15 15 16 14 14 14 11 7 7 12 20 25 27 23 21 17 13 13 13 14 14 14 13 12 12 12 12 13 13 12 13 16 18 17 14 12 11 11 13 14 14 15 15 16 17 16 16 15 15 15 16 16 16 15 15 16 16 16 16 16 16 16 17 17 18 18 18 19 19 19 19 18 17 17 16
4 4 4 3 3 2 2 2 2 2 1 3 3 3 2 8 8 8 14 17 16 15 11 10 10 10 15 13 10 11 9 11 18 23 25 21 19 17 14 15 15 14 15 14 13 12 11 11 12 13 13 13 13 16 18 17 15 13 11 10 11 13 13 13 14 15 15 15 16 15 16 16 16 16 15 15 15 15 16 16 16 16 16 17 17 17 18 18 18 19 20 20 19 19 18 17 16
5 5 3 1 3 2 1 1 1 2 3 4 3 2 4 8 10 10 14 17 14 11 9 7 5 9 16 12 8 9 11 14 18 21 22 19 17 16 15 16 15 15 15 14 13 12 11 11 12 12 13 13 13 16 17 17 16 14 12 10 10 11 12 12 13 14 14 14 15 15 15 15 16 15 15 15 16 16 17 17 17 17 17 17 16 17 17 17 18 19 20 19 19 19 18 17 16
5 6 4 2 2 2 1 0 2 2 5 4 5 4 7 8 13 15 15 16 11 9 8 7 7 10 12 11 11 12 13 15 18 19 20 20 18 16 15 14 13 15 15 14 13 11 11 11 11 13 13 13 14 16 16 16 16 14 12 9 9 10 11 12 12 12 13 14 14 15 14 14 14 15 16 15 16 17 18 18 17 17 16 16 16 16 17 17 18 19 19 19 19 19 18 17 15
6 6 3 1 3 2 2 2 3 3 4 2 8 7 7 10 18 20 14 11 8 7 8 8 12 12 8 10 12 10 12 14 19 19 19 21 18 17 15 12 13 14 13 13 13 11 11 11 12 13 13 13 14 16 15 16 16 14 12 10 9 9 10 11 12 11 12 13 14 15 14 13 14 15 16 15 16 18 18 18 17 17 16 15 16 16 16 17 17 18 18 18 18 18 18 16 14
5 3 2 1 1 1 2 1 3 4 2 4 9 11 13 16 21 17 10 8 6 7 8 10 13 10 4 10 10 8 13 14 17 18 20 21 19 20 16 12 13 13 11 12 12 11 11 11 12 13 13 14 14 15 14 15 15 14 12 10 9 9 10 11 11 11 11 12 14 14 13 13 14 15 15 15 17 18 19 19 18 18 17 16 16 16 16 16 17 17 17 17 18 18 17 16 14
5 2 1 1 1 2 1 1 2 3 1 5 8 14 20 20 20 15 8 9 9 8 8 10 10 7 6 13 12 11 15 13 16 18 20 21 21 20 15 12 12 13 10 11 13 11 12 12 12 13 14 14 14 15 13 13 13 13 12 10 10 10 11 12 12 12 12 13 13 13 14 14 14 14 14 16 18 19 19 19 19 19 18 17 16 16 16 16 16 16 16 16 16 16 16 15 14
4 2 1 1 1 2 4 3 3 2 1 7 9 15 22 19 18 17 12 10 11 11 8 8 8 11 13 14 12 13 15 16 18 19 22 23 22 20 15 12 11 13 11 12 14 12 12 12 12 13 14 14 14 14 13 12 12 12 12 11 12 12 12 12 12 13 13 13 13 13 14 15 14 14 15 17 18 18 19 19 19 18 18 18 17 16 16 16 16 16 16 15 15 15 15 14 14
2 2 1 1 1 2 3 2 3 3 2 5 8 14 21 20 18 16 15 11 12 13 10 9 11 18 16 10 11 14 17 17 19 22 25 25 22 19 16 13 12 11 10 12 14 12 12 12 13 13 13 13 14 14 13 13 13 13 13 13 14 13 13 13 13 13 13 14 14 14 14 15 14 15 16 17 18 18 18 18 18 18 18 18 18 18 17 17 15 15 15 14 14 14 14 14 13
1 1 2 2 2 4 4 3 5 3 1 3 5 10 17 20 16 12 14 12 12 13 11 9 12 17 12 6 13 15 17 18 19 23 27 26 22 19 16 15 13 12 10 11 14 13 12 12 12 12 12 13 13 13 13 13 13 13 14 14 14 13 14 13 13 13 14 15 15 15 15 15 15 16 16 17 17 17 17 17 17 17 17 17 17 17 17 17 16 15 14 13 13 12 12 12 12
2 1 4 2 3 4 2 4 5 2 1 2 4 8 15 16 15 17 17 15 14 11 9 8 10 13 7 7 16 17 18 20 20 24 28 26 22 19 17 17 15 13 11 12 14 14 12 11 12 12 11 12 12 13 13 13 13 13 14 14 14 13 13 13 14 14 14 15 15 15 15 15 16 16 16 15 15 15 15 15 15 15 15 15 16 16 16 16 16 15 14 13 12 11 11 11 10
3 2 3 3 1 2 2 3 4 4 3 4 5 10 12 9 13 22 20 12 10 11 9 7 7 8 7 9 14 20 20 21 22 26 30 26 23 20 19 18 16 15 13 13 15 15 13 11 12 12 11 11 11 11 12 12 12 13 13 13 13 13 12 13 13 14 14 14 14 14 14 14 15 15 14 14 13 13 13 13 12 13 13 13 14 15 15 15 15 14 14 13 12 11 11 10 9
3 3 1 1 3 3 2 4 5 5 4 4 9 12 12 9 11 20 19 11 7 12 12 7 6 4 9 11 12 24 24 22 25 29 31 27 24 22 21 20 17 17 16 14 15 15 14 12 12 12 10 10 9 10 10 11 11 12 12 12 12 12 11 12 12 13 13 13 13 13 13 13 13 13 14 13 13 12 11 10 10 11 11 11 12 13 13 13 13 13 13 13 12 11 11 10 8
2 2 2 1 2 2 3 4 5 5 3 6 12 14 11 9 11 15 13 14 11 12 10 6 6 3 10 12 10 24 27 23 27 32 32 28 26 24 22 21 18 17 17 16 15 15 15 13 12 11 11 10 9 9 9 9 10 10 10 10 10 10 11 11 11 12 12 12 12 12 13 12 12 12 12 12 12 11 10 9 9 9 9 9 9 10 11 11 11 11 11 11 11 11 10 9 8
1 1 2 2 2 2 3 4 5 5 4 6 12 14 10 6 11 15 12 17 15 10 8 6 5 5 8 8 9 23 28 25 29 33 33 29 29 26 24 23 21 19 19 18 17 16 16 14 13 12 11 10 9 9 8 8 9 9 9 9 9 9 10 10 10 11 11 11 11 12 11 11 12 11 11 11 11 10 9 9 8 8 8 8 8 8 9 9 9 9 9 9 9 9 9 9 7
2 3 2 3 3 3 4 5 6 7 7 10 13 15 13 7 10 16 13 15 16 11 10 9 7 7 6 7 12 22 26 27 29 33 34 31 30 28 26 25 24 22 21 20 18 18 18 16 14 12 12 11 10 9 9 8 8 8 8 8 8 8 9 9 10 10 10 11 11 11 11 11 10 10 10 9 9 8 8 8 7 7 7 6 6 6 6 7 7 7 7 7 6 7 7 7 6
5 3 2 4 4 3 3 6 11 10 11 14 14 15 16 12 14 16 9 11 16 11 10 11 11 12 11 14 17 20 24 27 29 31 33 33 31 29 27 25 26 25 24 22 20 19 19 18 16 14 13 12 12 10 10 9 8 8 8 8 8 8 8 8 8 9 9 10 10 10 10 10 10 9 9 8 7 6 6 6 5 5 4 4 4 4 4 5 5 5 5 5 5 5 5 5 5
7 3 1 5 6 2 4 5 14 15 19 19 14 15 16 15 17 15 11 12 12 10 11 12 16 19 18 19 20 21 23 25 28 29 30 31 30 29 26 24 26 27 25 23 21 20 19 19 17 15 14 13 13 12 10 10 9 9 8 8 8 8 8 7 7 7 8 8 9 9 9 10 10 8 8 7 6 5 5 4 3 3 2 2 2 3 2 2 3 3 3 3 3 3 3 3 4
5 6 4 5 4 1 3 0 11 21 26 24 17 13 13 16 17 14 15 11 4 12 18 14 17 22 22 23 22 21 23 24 28 29 29 29 28 27 25 22 23 24 24 23 23 22 19 18 18 17 16 15 14 13 11 10 10 10 9 9 8 8 8 8 7 7 7 7 7 8 8 9 9 8 7 6 6 5 4 4 3 2 1 0 0 1 1 2 2 3 4 4 4 4 4 3 4
3 5 8 4 3 3 2 0 10 23 26 22 17 11 13 16 15 16 17 9 6 15 19 17 18 21 21 22 23 22 22 24 27 29 29 28 27 26 24 22 21 22 23 24 24 23 21 19 18 18 17 16 14 13 13 12 11 10 10 9 9 9 9 9 8 8 7 6 6 6 7 7 7 7 7 6 5 5 4 4 4 3 2 2 2 2 2 3 4 4 4 5 5 6 7 6 5
3 6 5 1 3 4 4 2 9 21 23 19 15 13 17 14 11 16 15 9 11 15 17 18 17 18 20 21 22 22 22 23 25 28 29 28 27 26 24 23 22 22 22 23 23 23 22 20 20 19 18 17 16 15 14 14 13 11 11 11 11 11 10 10 9 9 8 8 6 5 6 5 6 6 6 6 5 5 5 5 5 4 4 4 4 4 5 5 5 5 6 6 6 7 8 8 7
6 5 2 1 3 5 6 3 8 20 21 18 18 17 17 12 8 13 11 8 11 12 14 19 18 17 20 21 21 20 19 21 23 25 26 26 26 25 24 22 21 21 20 21 21 22 22 21 21 20 19 18 18 17 17 16 15 14 13 12 12 12 12 11 11 10 10 9 8 7 7 6 6 6 6 6 6 6 6 6 6 5 6 7 6 5 6 7 7 7 7 7 8 8 7 7 8
7 5 2 2 2 4 7 4 8 17 18 18 19 15 14 12 9 11 11 10 12 10 11 18 22 21 22 20 19 18 18 19 22 24 25 25 25 23 23 22 21 21 20 19 20 20 21 21 22 22 21 20 19 19 19 18 17 16 15 14 13 12 12 12 11 11 10 10 9 8 8 8 7 7 7 8 7 7 7 7 7 7 7 8 7 7 7 8 8 8 8 9 9 9 8 8 8
8 9 6 5 3 3 7 6 8 11 14 18 15 8 10 11 7 8 12 13 12 11 11 17 22 23 22 20 18 18 17 18 22 24 24 24 24 24 23 21 21 21 20 19 19 19 19 19 21 23 22 20 20 20 20 19 18 17 16 15 14 13 12 11 11 11 11 11 10 10 10 10 10 9 9 9 10 9 9 9 9 9 8 8 8 8 8 9 10 10 10 10 10 10 10 9 9
7 10 8 7 5 3 6 6 6 7 10 15 12 6 7 10 6 5 13 16 13 13 14 17 20 22 21 19 18 17 17 17 19 22 24 25 26 26 24 22 21 20 20 20 20 19 18 18 19 21 22 20 20 20 20 20 19 18 17 16 16 14 13 12 12 12 13 12 10 10 10 11 12 12 11 11 11 11 11 11 11 12 11 10 10 10 10 10 11 11 11 10 11 11 11 11 10
5 13 7 6 5 2 5 6 7 6 5 9 10 6 4 6 4 5 14 19 17 16 17 18 19 20 20 20 19 18 18 17 17 21 24 26 27 28 27 25 23 20 20 20 20 20 20 20 18 18 20 21 20 20 20 20 19 19 19 18 16 15 14 13 13 13 14 13 12 12 12 12 13 14 14 13 13 13 13 13 13 14 14 13 12 12 12 12 12 12 12 11 11 12 12 12 11
7 14 5 2 3 1 6 7 8 5 3 8 10 5 1 2 7 10 15 21 21 19 19 20 19 19 19 19 19 19 18 18 20 22 23 23 24 25 27 26 25 23 21 20 19 20 20 20 19 18 18 20 21 20 19 19 19 18 19 18 17 16 15 14 14 14 14 14 15 14 14 14 14 15 15 16 16 16 15 15 14 15 15 15 15 14 14 13 14 14 13 12 13 13 13 14 13
6 7 4 3 2 2 7 8 7 4 5 9 7 2 5 6 13 14 16 24 24 21 21 22 20 19 18 18 18 19 19 21 23 22 21 20 21 22 24 25 26 25 23 22 21 21 20 19 20 19 18 18 20 20 20 19 19 18 18 18 17 16 16 15 15 14 14 15 16 16 16 15 15 15 16 17 18 18 18 17 16 15 16 17 17 16 16 15 15 15 14 14 14 14 15 15 16
4 2 2 4 2 3 5 6 7 4 5 8 4 2 5 6 13 15 19 25 24 22 22 22 22 21 20 20 19 19 20 21 22 21 20 20 19 20 21 23 26 27 26 25 24 22 20 20 19 20 19 18 18 19 19 18 19 18 18 18 17 17 16 16 15 15 15 15 16 17 17 16 16 16 17 18 19 20 20 20 19 17 17 18 19 18 17 17 16 16 16 15 15 15 16 17 18
1 3 3 1 4 4 5 4 8 5 4 6 4 2 5 6 7 13 22 24 23 23 22 21 21 22 22 22 21 21 20 20 20 20 21 20 19 19 20 21 24 27 29 28 26 23 22 21 19 19 19 19 18 17 17 17 18 19 19 19 18 18 17 17 16 16 16 16 16 16 16 17 17 17 18 19 20 21 22 22 22 20 20 20 20 20 19 17 16 17 17 16 16 17 17 18 19
1 3 3 2 4 3 3 3 5 5 3 3 3 2 3 4 5 14 19 21 22 22 22 21 21 21 23 24 23 23 22 22 22 22 22 21 21 20 19 20 22 24 27 28 27 26 24 22 20 20 19 19 18 17 16 16 16 17 19 20 20 20 18 17 17 17 17 17 17 17 17 17 17 18 19 20 21 23 23 24 24 23 23 21 21 22 22 20 18 18 18 18 18 18 19 20 20
3 1 3 3 4 4 2 3 4 5 5 4 3 2 4 5 5 14 17 18 20 19 21 22 21 20 22 24 25 24 24 25 25 24 23 22 22 21 20 20 21 22 24 26 26 26 24 22 21 19 18 18 18 18 16 15 14 15 17 19 20 20 19 17 17 17 18 18 18 18 18 18 17 18 18 19 21 23 25 26 26 26 25 24 23 23 23 22 20 19 19 20 20 20 20 21 21
3 3 2 3 2 4 4 3 4 7 5 5 4 3 8 7 4 13 17 18 19 20 22 21 21 21 21 24 26 26 26 27 27 25 23 23 22 21 22 21 21 22 23 24 25 25 24 22 21 20 19 19 18 17 16 15 15 15 17 18 19 19 18 17 16 17 17 18 19 19 19 18 18 18 19 19 19 20 22 24 25 25 25 24 23 22 23 23 22 21 21 21 22 22 21 22 22
6 6 5 4 3 3 5 4 5 7 5 5 6 6 9 8 6 11 16 19 20 22 21 21 20 21 23 24 25 25 27 28 26 24 23 24 23 22 22 22 22 22 22 23 24 25 25 24 23 22 20 19 18 18 18 18 18 17 17 18 19 18 17 16 16 17 18 18 18 19 20 20 19 18 19 19 19 18 19 20 21 21 22 23 24 24 23 22 20 19 19 20 22 22 22 22 22
4 4 5 6 5 4 4 3 4 4 5 6 7 8 9 8 7 10 16 17 17 19 19 22 23 22 24 26 25 25 25 25 22 22 24 24 24 23 22 22 23 23 23 24 25 25 25 24 24 23 21 20 19 19 19 19 19 19 18 18 17 16 15 16 16 17 17 17 17 18 19 19 20 19 18 18 18 18 18 19 18 18 18 20 22 23 21 19 17 17 17 19 20 21 22 22 23
5 4 5 6 5 4 3 2 3 1 3 5 5 6 9 9 8 11 14 12 15 21 21 23 27 26 25 26 26 26 25 22 20 21 23 24 24 24 24 24 24 25 26 25 26 25 24 24 24 22 21 21 20 20 19 19 19 19 18 17 16 15 15 16 16 15 15 16 17 17 17 18 19 18 18 18 17 17 18 18 18 17 17 17 18 19 18 18 18 17 17 18 19 21 23 23 25
5 3 4 6 4 3 2 2 1 1 1 4 2 4 9 10 8 9 12 14 18 26 26 26 28 28 28 27 27 27 26 23 22 22 23 23 24 24 25 26 25 25 25 26 26 25 25 25 23 22 22 21 21 20 20 20 19 19 18 18 16 16 16 16 16 16 16 17 17 17 17 17 17 17 16 15 17 18 19 19 19 19 19 19 18 18 19 19 19 19 19 20 20 22 23 23 24
5 2 4 5 4 4 2 2 2 1 1 1 1 2 6 8 6 7 14 21 21 25 28 28 28 28 29 29 28 29 28 26 25 24 23 24 24 24 26 26 26 26 26 26 27 27 26 26 24 23 23 22 21 21 21 20 20 19 19 18 17 17 18 18 18 18 18 18 18 18 17 17 17 16 15 15 17 18 20 21 20 19 18 17 17 20 22 21 21 21 22 22 22 23 25 25 26
5 4 4 4 5 5 3 3 3 2 2 1 4 3 5 6 6 7 13 19 18 21 26 28 30 30 28 28 29 30 30 28 27 26 26 26 26 26 25 25 25 26 27 27 27 27 27 26 25 24 24 23 22 21 21 21 21 21 21 20 20 21 21 21 20 19 18 18 18 17 17 17 17 16 16 17 18 19 20 20 19 18 16 16 20 24 24 23 24 24 25 25 24 25 28 29 29
5 5 5 6 7 5 5 6 5 3 3 3 3 0 6 5 7 9 10 9 11 17 21 26 33 32 30 30 31 31 31 29 28 27 27 27 27 27 25 24 24 25 26 27 27 27 26 26 25 25 25 24 23 22 22 22 23 23 23 24 24 24 23 21 19 17 16 17 17 17 17 17 17 17 17 18 19 20 18 18 18 18 17 18 22 26 27 28 28 25 25 25 25 26 28 30 30
4 5 4 6 7 7 9 8 5 3 3 3 3 5 5 6 5 9 8 6 10 12 14 22 31 31 32 34 32 31 31 30 29 27 27 28 28 27 26 25 24 23 23 24 26 28 27 26 26 26 26 25 24 23 23 24 25 25 25 25 25 24 21 19 17 16 17 18 18 18 18 18 18 19 19 19 21 20 17 18 19 21 22 22 25 28 28 27 24 21 22 24 27 29 29 29 30
4 3 4 8 9 8 9 9 4 3 3 2 2 4 3 5 6 8 6 6 9 9 9 16 23 28 32 35 32 30 30 29 29 29 28 29 28 28 27 25 24 23 22 24 26 27 28 27 27 27 27 26 25 24 25 26 26 26 26 26 25 23 20 18 18 18 19 19 19 19 19 19 19 19 19 19 20 18 16 18 18 20 23 24 26 25 23 22 21 21 24 26 28 29 29 29 31
5 3 5 7 8 8 8 7 4 1 3 2 4 3 2 6 7 6 1 4 7 8 10 13 19 27 30 32 32 29 28 26 27 28 29 29 29 28 26 24 23 22 24 25 25 25 26 27 27 27 27 27 26 25 26 27 27 27 26 26 25 22 20 19 20 20 20 21 20 19 19 18 18 18 17 16 15 14 14 16 17 18 20 21 21 20 20 23 24 24 25 27 28 28 30 32 34
4 3 5 4 4 5 5 5 4 3 2 5 6 4 3 5 6 4 1 2 6 8 9 11 18 27 29 30 31 29 28 26 26 27 27 27 27 27 26 25 24 24 24 25 26 26 26 27 27 27 27 26 26 26 27 28 29 28 27 26 24 21 20 20 21 20 20 19 18 17 16 14 13 13 12 12 11 12 13 14 16 17 18 18 18 18 20 22 24 24 25 27 27 28 30 30 29
4 5 6 6 5 4 4 3 4 3 2 6 7 4 3 3 5 4 4 5 7 7 6 8 15 22 26 27 27 28 28 28 28 28 28 28 27 27 28 28 27 27 26 27 28 28 28 28 27 27 27 27 27 28 28 29 29 27 25 23 21 19 19 20 19 18 16 15 13 11 9 8 7 7 8 9 9 10 11 12 13 15 16 17 18 18 19 20 22 24 23 24 25 26 27 26 26
5 4 4 4 3 4 4 4 2 2 5 6 4 2 3 4 5 5 5 6 6 7 7 8 10 15 20 21 21 22 24 25 26 27 28 29 29 29 30 30 30 29 29 29 29 29 29 29 29 29 29 28 28 29 28 28 27 24 22 20 19 18 19 18 15 12 10 8 6 5 4 3 3 5 6 6 7 7 8 9 11 13 14 16 18 19 20 21 23 24 24 26 27 27 26 27 27
4 4 6 4 0 2 1 2 1 3 5 4 2 1 2 5 7 8 8 9 8 8 10 11 12 14 16 17 18 18 18 20 21 23 25 27 27 28 28 29 29 29 29 29 28 28 28 29 29 29 29 29 29 28 27 25 22 19 19 18 18 17 15 12 9 7 6 5 4 3 2 1 2 3 4 5 6 6 7 8 9 10 11 13 15 17 19 21 22 23 24 25 25 25 25 26 26
4 5 6 5 3 3 2 4 2 3 4 3 2 1 2 4 6 10 13 14 14 10 9 12 15 18 17 16 16 15 16 17 18 20 22 23 24 25 26 26 27 27 27 27 26 24 24 25 26 27 28 27 26 24 21 19 17 17 17 16 15 12 10 8 8 8 8 7 6 5 4 3 3 3 4 5 6 7 7 8 8 8 9 11 12 13 14 16 17 19 20 20 21 21 22 24 26
4 4 6 5 4 4 4 3 3 4 3 3 2 1 3 3 4 8 9 10 11 9 9 12 15 16 15 14 13 13 14 15 15 17 18 20 21 22 22 22 22 22 23 22 21 20 20 21 22 22 22 21 19 17 15 15 15 14 14 13 12 12 11 12 11 11 9 8 7 6 4 3 3 4 5 7 8 8 9 10 10 10 10 10 11 11 12 13 15 16 17 18 18 18 20 21 23
4 3 5 4 5 5 3 4 5 5 1 1 2 3 5 4 5 8 5 3 2 8 11 15 17 15 14 13 12 12 12 12 13 13 14 15 16 16 17 17 18 19 19 19 19 19 19 19 18 18 17 16 16 16 15 15 15 14 15 15 15 15 14 13 12 10 9 7 5 4 3 3 4 6 7 8 9 10 11 11 12 12 12 12 12 12 12 12 13 14 14 15 16 17 18 19 20
2 3 4 5 4 6 4 2 1 4 2 3 2 3 5 4 6 7 1 2 3 5 9 14 18 18 16 14 12 12 12 11 10 10 10 11 12 14 15 16 17 18 18 19 19 19 18 18 18 18 18 18 18 18 18 18 18 18 18 18 17 16 14 13 11 9 7 5 3 3 3 4 6 6 7 8 9 11 11 12 12 12 12 12 12 12 12 13 13 13 13 13 13 14 15 15 17
4 3 5 3 3 4 3 2 2 3 2 4 2 4 5 3 4 5 2 4 7 6 6 9 14 17 17 15 13 12 11 10 10 9 9 10 11 12 13 14 15 16 17 18 19 19 19 19 19 20 21 20 20 21 21 21 21 21 20 19 17 15 13 11 9 7 5 4 3 4 4 5 5 6 7 8 9 10 10 11 10 10 10 10 10 11 12 12 12 13 13 13 14 14 14 14 14
4 3 2 3 3 2 1 3 1 1 3 4 3 4 4 4 5 4 3 8 9 8 7 7 10 15 18 16 15 14 13 12 12 11 11 11 12 13 14 16 17 17 18 19 20 21 21 21 21 21 21 22 22 23 23 23 22 20 18 17 15 13 11 9 7 6 5 4 4 4 4 5 5 6 7 8 8 9 9 9 8 8 8 8 9 10 10 11 11 11 11 12 13 13 14 15 14
1 1 2 1 2 4 3 3 4 3 3 4 3 2 3 5 6 5 8 10 10 10 9 8 12 17 20 18 17 17 16 14 13 13 14 13 14 15 16 17 18 19 19 20 21 21 22 22 23 23 24 24 24 24 23 22 20 18 16 14 13 11 9 7 6 5 4 3 3 4 5 6 7 7 7 7 7 7 7 7 7 7 7 7 8 9 9 9 10 10 11 11 12 13 13 14 14
2 1 1 1 0 1 1 1 3 4 3 3 2 2 5 6 5 7 9 10 9 11 9 9 14 20 21 19 18 18 17 16 14 15 16 16 16 17 18 18 19 19 20 20 21 22 23 24 24 25 25 25 24 22 20 19 17 15 14 12 10 9 8 6 5 4 3 3 4 5 6 7 7 7 6 5 5 5 5 5 5 6 7 7 8 8 9 10 10 11 12 12 13 13 14 14 14
6 5 5 6 3 3 2 3 2 2 3 4 4 3 7 6 4 4 7 7 6 9 11 11 16 21 22 20 18 17 17 17 16 17 17 18 19 19 19 19 19 20 20 21 22 23 25 26 26 26 24 23 21 19 18 17 15 13 11 10 9 7 6 5 4 3 3 4 5 6 6 7 6 4 3 2 2 3 3 4 5 5 6 7 8 9 9 10 11 12 13 13 14 14 14 15 15
Wind_Direction
244 240 242 225 256 286 309 18 351 307 64 271 265 146 205 153 122 114 90 73 72 58 72 73 57 64 90 107 111 86 53 11 215 135 132 146 145 153 163 165 164 147 136 129 120 105 95 83 80 76 80 96 111 107 98 96 95 90 81 76 72 70 80 91 93 97 98 98 94 86 90 93 91 89 88 87 87 85 85 86 87 86 85 85 85 85 85 86 85 85 86 87 90 92 93 91 88
240 237 239 232 248 295 322 53 66 348 48 293 289 169 168 97 89 115 109 89 105 99 85 73 61 80 104 102 97 76 45 45 111 116 123 141 147 154 169 173 166 149 139 131 121 108 97 88 84 80 82 91 112 115 105 101 98 91 82 80 77 73 81 91 93 95 98 100 95 90 92 96 97 95 92 90 87 85 85 86 86 84 83 83 83 82 82 83 84 84 86 88 91 94 95 94 93
240 230 216 230 265 318 315 12 116 11 45 227 274 258 138 93 104 123 113 103 106 107 98 79 64 77 96 78 57 73 71 81 107 115 124 144 149 153 178 177 162 150 140 132 123 110 100 93 88 86 86 91 110 117 111 110 107 98 87 82 81 79 84 87 88 95 98 97 97 96 94 96 100 97 93 89 87 85 83 85 85 84 82 82 82 83 82 83 84 86 89 91 94 95 95 96 96
229 217 207 239 11 3 343 45 159 164 275 206 216 287 98 114 123 118 110 108 109 111 106 88 66 71 85 89 84 86 97 110 117 120 130 150 150 151 173 165 157 152 141 135 125 113 104 97 93 91 89 94 109 117 112 112 112 106 96 86 83 84 85 80 82 96 98 98 101 99 94 95 99 98 93 87 85 84 82 81 80 80 79 78 80 82 82 82 85 88 91 93 95 95 95 97 97
213 205 202 224 8 3 87 60 152 131 237 191 162 237 130 127 125 114 112 114 113 110 112 108 91 88 85 91 105 100 114 126 128 127 134 150 149 150 160 154 157 152 142 138 128 117 109 103 99 95 94 96 108 119 114 111 115 110 104 94 87 85 83 78 83 95 99 102 103 95 92 96 98 96 90 83 81 82 82 80 77 77 77 78 77 79 82 84 87 90 92 94 94 95 96 96 97
202 188 195 233 297 297 64 223 312 298 242 173 140 173 148 135 124 116 112 113 109 110 118 117 120 104 83 79 94 118 134 135 137 137 139 145 146 150 149 147 157 147 138 139 132 121 112 109 103 97 98 98 110 120 116 113 118 116 111 104 92 84 78 80 87 93 98 101 99 94 92 95 97 93 89 85 82 82 83 82 80 79 80 80 80 82 84 86 89 92 93 94 94 94 95 95 94
204 177 171 258 270 278 99 169 256 257 273 133 137 154 152 138 125 119 113 108 105 123 114 112 126 101 87 112 97 114 150 150 144 145 147 145 147 147 144 152 158 138 132 142 136 124 115 112 107 100 102 103 113 120 115 114 119 118 115 108 94 80 77 83 87 94 102 101 100 103 101 97 97 94 92 90 86 87 87 86 84 82 82 82 85 88 90 91 92 94 95 95 95 95 95 95 91
194 163 77 64 302 350 114 184 245 210 346 67 133 144 144 140 130 124 123 124 132 147 124 118 126 95 102 141 102 112 148 152 142 150 157 148 146 146 151 168 157 135 134 148 142 129 120 115 110 104 105 106 113 119 114 112 118 120 116 111 99 85 84 86 87 95 104 103 102 106 105 101 101 99 99 97 93 93 92 90 86 82 80 79 82 87 90 93 94 95 95 96 96 97 97 95 88
168 166 19 101 194 332 311 270 245 225 16 89 124 142 141 141 133 126 120 126 143 154 140 131 127 116 125 119 106 125 143 153 146 154 161 148 143 147 163 179 156 141 144 154 149 135 124 119 113 106 106 107 113 118 117 114 116 120 117 109 103 97 93 90 93 97 99 104 104 101 100 103 103 103 102 100 98 97 95 91 85 81 79 79 82 86 90 93 96 96 96 98 99 100 99 95 89
152 181 280 84 134 314 307 290 228 243 177 127 132 146 140 138 131 126 125 130 151 149 140 134 127 133 127 113 115 135 143 156 155 155 158 145 141 151 171 184 161 147 151 159 154 142 131 124 115 109 108 109 114 117 117 116 111 113 113 108 104 102 99 94 96 98 98 101 102 98 98 102 103 103 101 99 101 100 96 90 87 85 84 84 86 88 91 93 97 99 99 101 102 103 101 95 90
130 205 226 81 100 248 255 262 219 234 216 130 129 144 140 137 126 123 126 129 147 141 145 131 125 130 119 118 131 144 152 161 164 156 153 145 144 159 176 180 165 158 163 161 156 148 138 130 120 113 111 111 114 117 117 116 111 109 109 108 105 103 101 98 97 99 99 99 99 96 98 101 99 99 101 103 105 104 98 94 92 89 88 87 87 89 90 94 96 99 101 103 105 104 102 98 92
133 278 104 134 204 207 204 173 204 232 238 113 127 144 142 140 126 127 127 129 139 138 161 142 140 140 110 124 145 154 164 167 172 159 153 148 148 164 176 176 170 172 178 166 159 155 145 137 128 119 116 114 113 115 117 117 114 110 108 107 106 104 102 100 100 100 99 100 100 99 100 100 97 98 102 106 108 107 102 98 95 92 91 88 87 88 89 92 95 98 100 102 103 102 101 99 95
216 8 94 190 207 187 190 154 189 169 137 208 167 143 144 143 132 140 133 133 143 138 168 149 151 151 106 128 149 163 172 173 175 161 156 151 152 168 175 178 178 177 183 175 164 160 153 147 138 130 123 119 115 114 114 115 114 112 109 108 106 105 103 102 103 102 103 104 104 103 103 103 101 101 103 107 111 110 105 99 97 95 92 89 87 86 87 89 92 94 96 98 98 99 98 95 95
211 7 104 211 276 225 197 142 186 154 195 239 170 147 138 129 134 146 136 128 145 146 162 160 155 146 120 130 155 175 175 176 175 162 158 152 156 172 177 181 182 178 182 177 168 165 160 157 149 141 133 125 120 116 114 113 112 113 112 111 108 107 106 104 103 105 108 108 108 108 107 108 107 106 106 109 113 112 110 106 101 97 92 89 85 83 84 84 86 88 89 91 91 90 90 89 91
236 330 82 199 325 297 221 168 184 159 193 211 165 155 127 96 128 144 139 130 133 149 156 152 147 136 158 164 179 182 177 176 171 162 159 153 159 175 182 185 186 180 179 175 170 169 166 166 160 150 146 137 130 124 118 116 113 115 114 114 114 112 110 106 106 108 111 114 115 115 114 113 112 112 112 113 116 118 118 115 107 100 93 87 85 83 81 81 81 82 83 83 82 80 80 81 83
260 288 57 356 264 273 249 178 145 142 212 194 166 156 123 89 119 127 139 145 128 143 155 145 153 139 173 192 199 177 174 176 168 163 162 157 164 175 183 188 189 182 179 176 170 172 170 172 169 159 156 151 145 138 129 124 120 119 118 119 120 118 117 113 113 113 115 119 122 123 122 121 120 120 119 120 121 122 121 117 110 102 95 88 85 83 80 78 78 79 80 79 78 75 74 74 73
246 132 63 303 240 224 224 187 160 164 187 185 172 159 134 91 113 112 129 146 130 136 146 128 151 145 166 202 194 172 173 175 168 166 165 164 169 174 182 187 188 184 183 181 173 173 173 175 177 169 166 165 163 155 146 139 132 130 126 126 126 125 125 123 122 121 121 124 126 128 129 130 129 128 126 127 127 126 123 117 114 106 98 90 83 81 78 76 75 74 75 76 78 76 75 72 66
177 119 160 250 228 207 219 205 179 153 151 177 180 167 149 132 129 123 118 132 127 125 130 127 135 134 148 164 164 171 174 175 173 171 171 172 175 177 181 187 189 186 186 185 178 176 175 177 180 178 177 174 174 171 165 157 150 146 141 139 136 133 133 132 132 131 130 131 132 133 135 135 134 133 131 131 130 128 126 121 118 112 106 100 89 82 76 72 70 66 65 64 65 68 73 73 65
189 137 162 234 218 228 264 173 156 142 154 169 172 170 163 156 149 140 129 134 134 119 115 130 131 128 142 154 161 172 177 179 179 178 177 179 183 184 185 189 189 188 190 188 183 182 180 179 180 183 185 183 183 181 176 173 170 166 160 156 151 146 145 143 142 141 140 141 141 141 142 140 138 139 138 136 135 133 130 127 125 124 117 106 94 82 70 64 60 52 54 48 41 47 51 58 60
206 176 162 243 231 286 349 149 164 159 155 159 163 169 170 167 159 155 153 149 149 148 144 142 140 143 153 163 169 175 180 184 185 185 184 185 189 191 193 192 188 190 193 191 188 188 186 183 182 185 191 191 188 186 184 183 183 183 180 176 171 164 162 157 154 154 152 153 152 153 152 147 146 150 150 145 144 147 142 139 139 138 124 92 79 70 58 42 34 22 24 19 15 23 21 24 33
197 175 196 255 249 252 340 248 175 164 156 160 162 160 167 172 171 168 156 147 179 183 179 180 169 166 166 170 177 181 185 187 188 191 190 189 192 194 198 198 193 191 193 193 193 193 192 188 187 190 195 196 192 192 193 192 193 195 195 193 192 184 178 176 173 170 168 169 164 163 170 161 154 157 159 158 159 169 170 166 170 176 197 182 356 7 351 332 338 338 341 337 339 340 336 350 4
222 214 214 255 262 193 208 81 155 158 155 158 156 148 160 166 174 177 163 159 215 199 197 207 197 188 184 180 182 185 189 190 191 193 193 194 195 196 198 199 196 193 193 195 196 196 197 195 194 197 199 199 198 199 201 202 203 204 207 208 208 205 196 191 191 189 187 192 180 174 187 174 164 167 169 175 178 187 198 199 202 213 228 245 266 282 289 294 304 309 317 320 325 325 325 335 341
237 255 215 270 247 188 175 149 146 156 153 153 151 144 152 154 172 184 180 189 204 201 205 210 208 202 195 188 186 189 193 196 196 196 197 198 199 201 200 200 199 198 196 197 198 198 200 201 201 205 204 203 203 203 209 212 211 210 214 216 215 218 215 204 203 201 198 207 201 193 205 189 175 185 189 194 195 200 216 222 224 226 230 245 258 267 276 282 290 295 300 306 310 314 321 329 330
211 258 249 65 204 173 167 136 139 158 156 155 152 145 153 153 168 187 191 191 184 187 197 204 204 194 191 190 190 195 199 201 202 200 200 202 204 206 206 205 203 203 201 199 202 202 203 204 204 211 213 211 210 209 212 218 221 221 220 221 218 219 223 217 214 214 209 214 215 209 219 217 200 204 212 218 214 212 225 233 233 232 233 245 253 255 266 276 283 288 293 298 300 305 312 315 316
207 232 216 155 183 181 177 143 129 151 151 155 151 146 165 168 168 184 181 162 161 165 171 187 193 187 188 194 194 197 201 203 204 202 201 203 204 205 208 209 206 206 207 204 205 206 207 208 206 212 217 217 219 218 218 220 226 231 231 232 232 228 229 227 223 225 223 222 225 221 224 234 231 224 227 238 238 234 238 242 245 243 242 252 261 261 265 275 280 282 287 292 294 299 301 302 304
216 213 188 160 173 194 183 166 134 137 144 154 147 128 159 169 167 181 180 164 157 165 163 173 183 185 186 192 196 197 201 201 202 203 202 201 201 201 205 210 209 209 211 212 212 211 211 213 211 211 216 219 221 225 225 226 228 234 239 241 246 247 242 241 237 236 238 235 232 231 231 238 246 244 239 244 251 254 254 257 261 262 260 263 267 270 271 274 279 282 285 288 291 294 295 295 295
231 196 167 147 152 183 186 181 160 142 146 155 147 124 145 159 162 184 186 177 170 171 168 172 180 184 187 190 197 201 204 204 201 203 202 200 199 200 203 208 212 211 211 214 216 218 218 219 217 213 215 217 218 223 227 229 232 234 241 246 250 254 251 249 247 245 248 249 244 242 241 242 248 254 253 252 254 259 262 265 269 272 273 271 271 273 273 275 278 281 283 286 289 290 292 292 291
210 160 135 128 140 185 195 178 170 156 154 163 142 121 121 140 172 205 187 186 189 182 172 177 184 187 190 192 197 204 207 208 203 202 204 204 203 201 201 206 212 211 209 214 217 218 221 223 224 221 220 219 217 220 224 229 233 234 239 245 248 252 253 251 250 250 251 255 255 251 251 249 251 256 260 261 260 260 263 264 267 271 274 275 274 274 275 277 278 280 283 285 287 290 291 291 290
193 157 123 122 110 213 200 174 176 172 163 167 135 114 302 195 212 213 192 189 192 189 180 179 186 191 195 198 202 206 208 208 206 207 209 209 210 208 206 207 210 212 213 216 219 219 222 225 227 228 227 224 221 221 224 228 232 235 238 243 245 248 251 252 252 252 251 254 256 257 255 253 254 257 260 263 264 264 264 263 264 267 271 273 274 274 276 278 279 280 281 283 287 290 292 292 290
201 163 120 137 60 290 211 180 180 185 170 172 148 181 260 243 223 210 189 187 186 188 188 184 188 192 196 202 206 208 207 209 211 212 213 212 214 215 213 210 209 212 215 216 220 223 224 226 226 228 229 228 225 223 225 226 229 233 238 242 245 246 249 252 254 253 252 251 254 257 258 256 253 254 258 261 264 266 267 266 266 266 268 270 272 273 273 273 276 277 278 281 284 288 291 292 292
199 181 140 135 159 252 243 187 162 161 188 185 157 212 244 258 241 211 186 186 186 189 193 194 196 195 198 204 210 213 211 212 216 217 216 216 215 217 218 214 211 210 213 217 221 225 227 229 229 229 230 231 229 227 227 227 227 231 236 242 246 248 249 251 254 254 254 254 254 256 258 260 257 253 254 257 261 265 269 271 270 269 266 267 270 271 270 269 270 272 274 277 280 284 287 289 291
201 180 225 214 173 242 297 200 166 156 200 196 158 210 251 277 253 201 187 189 193 194 196 201 202 201 202 206 212 216 218 218 220 221 220 219 218 218 217 216 215 211 213 218 222 225 228 231 232 231 232 232 231 230 229 229 229 231 234 240 245 249 251 252 254 255 255 256 256 257 257 258 259 257 254 254 257 260 265 269 271 271 267 267 269 268 266 265 266 267 270 274 278 281 282 282 285
275 156 200 210 174 219 298 235 202 165 160 207 194 188 245 272 204 179 184 191 197 199 198 202 206 206 205 208 213 216 218 218 219 222 222 222 220 220 219 217 218 216 216 219 222 225 227 229 231 232 232 231 231 229 228 229 230 233 235 237 242 247 250 253 255 255 254 255 257 261 261 260 259 258 255 252 253 257 260 263 266 269 268 267 268 269 269 267 264 263 266 271 274 275 276 276 279
271 103 175 220 181 176 206 272 241 163 149 206 206 192 245 270 191 175 183 189 194 199 199 203 208 211 209 209 213 216 218 218 220 223 223 224 224 221 221 220 220 220 219 220 223 225 227 229 230 231 231 229 229 228 227 228 228 233 235 236 239 244 248 250 252 253 254 256 258 262 264 265 265 265 264 259 255 256 258 260 262 266 268 269 271 274 277 278 276 270 266 269 271 271 273 277 280
191 165 186 241 174 175 197 229 213 163 157 204 179 229 259 272 230 193 193 190 196 204 203 205 209 213 213 210 212 217 221 224 226 227 226 227 227 224 222 221 221 221 220 221 222 224 226 229 230 230 229 226 225 226 227 227 228 231 233 233 235 240 246 249 251 253 254 255 258 261 262 264 267 268 270 270 266 261 259 261 263 264 266 269 272 274 276 277 279 277 273 272 272 273 275 279 282
173 174 182 189 179 210 214 235 228 165 159 210 189 209 239 243 241 217 204 198 205 214 212 210 212 216 215 212 215 219 224 230 232 230 228 227 227 227 225 222 222 221 220 220 220 222 224 226 228 227 225 224 223 222 224 225 227 230 232 234 237 240 245 250 253 255 256 257 259 261 262 265 267 267 269 272 274 271 268 269 270 270 268 266 265 267 269 271 274 278 278 274 272 272 275 278 282
220 184 187 191 190 221 232 262 265 160 157 217 205 211 241 237 240 235 215 204 209 218 217 215 214 215 215 214 217 222 228 233 234 231 230 229 227 227 227 225 223 221 220 219 220 221 223 224 225 225 223 223 223 222 224 227 230 234 238 242 247 250 252 255 257 258 260 262 263 262 264 267 267 269 270 273 275 275 274 272 273 275 273 269 265 263 268 273 277 279 280 276 271 270 272 277 283
253 219 205 205 198 215 250 252 244 163 165 229 215 218 258 249 240 242 217 198 212 215 211 215 216 215 216 217 219 225 230 231 230 229 228 228 227 226 227 226 223 222 220 219 221 222 223 225 226 226 224 225 227 228 229 233 238 243 248 252 257 258 256 258 261 263 265 266 266 266 266 266 267 269 272 275 278 278 276 273 274 274 271 271 270 270 274 277 279 283 285 284 279 276 276 280 283
242 214 187 212 206 187 298 325 239 101 167 255 253 212 251 255 247 244 212 201 216 217 214 218 217 214 215 216 220 224 226 226 223 223 224 224 226 225 225 225 224 225 224 224 224 223 224 226 227 228 228 228 230 234 236 239 243 247 251 255 256 257 256 258 261 262 262 263 266 268 269 268 268 270 272 275 277 278 278 275 275 274 269 269 273 278 280 280 282 283 284 286 286 283 280 280 280
242 180 156 216 200 167 234 279 200 129 138 198 81 210 259 267 267 263 229 220 221 222 223 226 224 220 218 217 220 223 222 220 218 218 221 221 222 223 223 224 224 224 225 225 224 223 224 227 228 229 231 233 233 235 239 243 245 246 248 249 251 253 254 254 255 257 259 262 265 267 272 274 274 276 275 274 274 273 273 272 274 275 273 276 282 284 282 283 287 284 280 280 283 283 281 283 281
246 196 163 197 189 185 198 163 143 41 348 82 77 360 294 255 245 258 241 228 223 224 224 226 228 226 225 224 223 223 222 221 219 217 219 220 221 223 224 225 224 225 226 226 226 226 227 228 230 231 233 235 237 238 240 242 242 241 240 238 238 241 245 249 254 260 264 266 270 272 276 277 276 277 271 267 269 269 269 271 277 281 280 282 282 279 277 280 285 282 276 275 278 280 283 288 287
257 225 190 187 182 169 133 124 110 64 313 269 116 308 290 269 237 240 241 230 224 223 218 222 228 225 224 225 225 225 225 225 225 224 222 221 221 223 224 225 226 228 229 229 229 229 230 231 231 233 233 235 238 241 242 241 241 240 239 239 239 242 247 255 262 268 270 272 275 276 276 275 275 273 267 264 266 271 277 281 284 289 290 287 278 273 272 277 281 278 275 277 279 279 280 285 287
245 247 200 165 147 135 137 141 127 128 230 264 138 175 262 307 269 244 237 231 233 225 217 223 227 224 222 225 227 227 225 224 225 225 223 222 221 221 222 224 227 229 230 231 230 229 229 230 231 233 234 236 238 241 242 241 241 241 241 243 246 250 255 263 267 268 269 271 273 273 273 272 269 267 265 265 269 273 275 273 275 280 281 276 269 267 271 277 282 278 276 279 278 276 275 277 282
235 246 138 132 134 144 158 153 145 178 185 336 35 146 231 287 265 256 230 219 245 241 230 233 228 223 223 224 225 225 225 224 222 221 220 221 222 222 224 227 229 229 229 229 229 229 228 228 229 232 235 238 239 239 240 241 242 242 242 243 246 250 255 261 262 262 264 266 269 272 271 268 265 265 267 269 274 276 271 265 263 264 262 260 262 272 283 287 288 285 282 281 278 276 276 278 283
240 221 128 138 147 151 157 146 135 110 114 290 291 146 187 269 269 291 262 200 249 243 229 234 228 223 222 221 221 220 219 220 219 219 219 219 220 222 225 227 228 227 226 227 228 229 229 228 228 230 233 236 237 237 237 238 240 240 240 241 243 248 253 254 255 257 259 261 264 266 266 267 269 272 275 279 284 287 284 278 273 267 264 264 267 277 286 284 284 284 281 278 277 276 276 278 281
217 150 88 77 78 102 123 131 122 76 95 233 246 185 182 269 277 295 345 210 238 236 232 233 228 225 222 220 219 216 215 214 213 215 216 218 220 222 225 226 226 225 224 224 226 227 227 227 227 228 231 233 234 234 234 235 236 235 236 239 243 248 250 250 252 255 258 261 265 266 267 270 273 276 281 288 293 292 289 284 280 277 275 275 274 272 273 274 275 276 275 276 279 282 284 284 283
135 94 63 43 25 49 62 65 99 90 261 245 243 206 174 270 277 240 213 220 211 213 238 241 232 230 226 225 222 218 218 218 218 218 219 221 224 227 229 231 231 230 227 224 224 224 225 226 226 227 228 230 232 233 233 234 234 234 237 242 246 247 246 247 250 254 259 264 269 273 272 271 276 283 286 288 289 289 288 288 286 285 283 282 280 276 273 269 269 273 276 277 279 281 285 288 287
106 91 98 75 360 17 26 0 68 161 246 262 265 210 161 225 261 244 244 259 225 202 218 228 224 221 219 217 215 214 214 217 221 223 224 225 226 228 230 232 233 233 232 228 225 225 225 225 226 226 227 229 231 232 233 234 235 238 241 242 240 238 239 242 247 252 257 259 257 256 254 258 274 282 284 286 288 288 288 291 293 292 291 288 284 282 279 273 271 273 274 273 272 273 276 281 287
92 113 127 123 9 35 26 261 222 217 241 274 293 277 199 228 255 262 269 277 255 218 218 223 202 185 186 191 197 205 210 216 221 223 226 228 228 229 229 230 231 231 232 231 229 227 226 226 227 227 228 229 231 233 235 237 238 237 233 229 227 227 230 233 233 227 219 205 191 185 186 204 246 263 276 285 290 293 293 295 297 296 295 293 289 285 282 280 279 279 278 277 276 276 277 280 285
134 147 149 153 145 113 208 239 263 250 254 275 278 290 255 263 272 254 251 257 249 234 227 219 193 177 178 187 197 209 217 221 223 223 224 226 227 228 228 228 229 229 229 229 228 226 224 224 224 225 227 228 231 233 233 230 225 219 216 215 214 211 205 194 183 177 172 164 160 162 171 191 216 243 264 277 286 294 297 298 299 299 299 298 296 293 290 288 288 288 288 289 287 283 279 279 281
187 174 147 157 164 153 193 215 206 223 257 285 282 258 195 203 259 251 256 265 244 216 201 191 182 180 183 189 201 212 219 222 224 225 225 225 226 227 226 225 224 223 222 221 218 215 214 214 214 216 217 217 216 213 208 204 200 198 196 191 183 174 166 162 158 157 155 154 159 168 183 208 241 264 276 286 293 298 303 308 310 313 314 311 308 304 302 300 298 299 299 298 297 294 289 286 284
223 154 128 177 187 148 146 185 181 174 173 270 243 232 208 206 269 276 291 320 180 163 166 165 167 174 178 187 201 208 214 218 220 223 223 221 221 219 217 213 210 209 208 204 201 199 199 199 198 196 193 189 185 181 177 176 174 172 169 162 158 155 152 151 150 151 153 157 167 183 214 257 278 284 292 299 305 311 315 319 321 323 324 323 320 314 309 305 302 302 302 301 302 301 299 298 295
187 137 179 214 167 119 120 199 155 108 154 248 208 239 283 298 287 291 312 159 184 161 162 162 165 171 177 187 196 199 204 208 210 213 214 213 208 202 200 197 196 195 192 189 187 186 185 182 179 174 169 168 168 164 160 158 156 154 152 149 148 148 149 150 152 156 159 165 183 216 253 269 280 291 305 314 319 322 322 323 324 324 324 324 324 322 320 320 319 318 318 316 315 313 312 312 309
124 169 213 200 129 102 114 171 13 67 202 265 207 213 269 273 265 314 357 210 231 224 198 183 177 178 183 187 189 193 195 196 199 198 199 200 194 189 186 182 182 180 178 177 174 172 170 169 167 163 160 158 157 153 150 149 148 147 147 146 147 149 151 154 156 161 168 185 215 239 257 273 294 309 318 321 322 324 324 326 328 327 329 330 330 332 332 334 335 335 336 335 334 333 333 335 334
140 187 206 126 156 213 149 157 187 179 223 268 275 238 243 214 223 287 267 224 229 228 217 208 198 192 188 185 185 187 187 189 192 190 188 186 181 178 175 172 171 169 169 167 165 163 161 160 158 155 153 151 149 148 146 146 146 147 147 147 148 150 153 157 161 172 188 207 229 252 275 295 310 314 316 318 320 323 325 328 334 335 339 343 342 344 346 348 351 351 352 352 351 352 354 357 357
92 26 3 58 158 185 186 170 163 166 204 240 284 295 255 232 217 213 221 222 217 212 211 210 207 199 190 187 185 184 186 188 187 186 183 179 176 175 172 170 168 165 164 162 159 158 155 154 153 152 151 149 148 147 146 147 147 147 148 148 151 155 159 167 175 186 205 225 256 285 296 301 304 304 309 314 316 323 329 333 340 345 352 357 356 357 360 4 9 10 12 13 11 11 10 10 10
145 80 172 236 223 147 201 223 142 129 167 205 224 265 266 251 212 200 222 231 216 206 205 209 210 201 193 191 189 185 186 187 185 184 182 177 175 174 170 169 167 162 160 157 156 154 153 153 151 150 150 149 149 149 148 149 149 149 152 154 158 163 167 177 186 195 223 258 279 289 290 291 294 297 304 312 318 328 339 348 357 4 9 11 8 9 10 13 18 18 18 19 19 19 17 15 14
171 175 185 190 188 139 167 241 236 132 172 183 170 236 271 256 214 213 238 252 235 208 201 204 208 203 197 193 192 190 188 188 186 184 181 177 175 172 169 168 166 162 159 156 155 155 154 152 151 150 151 151 151 151 151 152 154 156 159 161 165 171 176 185 196 218 252 266 270 275 279 281 284 289 302 323 343 2 18 22 24 23 22 21 16 17 18 18 21 21 19 18 16 14 13 10 8